This is the latest recevied weather packets stored in our database for station/object KG5MMT-15. If no packets are shown the sender has not sent any weather packets the latest 10 day(s).
| Time | Temp. | Humidity | Pressure | Rain* | Wind** | Luminosity | Snow |
|---|---|---|---|---|---|---|---|
| 1778018536 | 15.56° C | 41% | 0 hPa | 0 mm | - | - | - |
| 1778018237 | 15.56° C | 42% | 0 hPa | 0 mm | - | - | - |
| 1778017936 | 15.56° C | 42% | 0 hPa | 0 mm | - | - | - |
| 1778017636 | 15.56° C | 41% | 0 hPa | 0 mm | - | - | - |
| 1778017336 | 15.56° C | 41% | 0 hPa | 0 mm | - | - | - |
| 1778017036 | 15.56° C | 42% | 0 hPa | 0 mm | - | - | - |
| 1778016737 | 15° C | 43% | 0 hPa | 0 mm | - | - | - |
| 1778016437 | 15° C | 41% | 0 hPa | 0 mm | - | - | - |
| 1778016137 | 16.11° C | 41% | 0 hPa | 0 mm | - | - | - |
| 1778015837 | 16.11° C | 41% | 0 hPa | 0 mm | - | - | - |
| 1778015537 | 16.67° C | 41% | 0 hPa | 0 mm | - | - | - |
| 1778015237 | 15.56° C | 43% | 0 hPa | 0 mm | - | - | - |
| 1778014937 | 16.11° C | 41% | 0 hPa | 0 mm | - | - | - |
| 1778014637 | 16.11° C | 40% | 0 hPa | 0 mm | - | - | - |
| 1778014337 | 16.11° C | 43% | 0 hPa | 0 mm | - | - | - |
| 1778014037 | 15.56° C | 43% | 0 hPa | 0 mm | - | - | - |
| 1778013737 | 15° C | 47% | 0 hPa | 0 mm | - | - | - |
| 1778013437 | 14.44° C | 49% | 0 hPa | 0 mm | - | - | - |
| 1778013137 | 13.89° C | 50% | 0 hPa | 0 mm | - | - | - |
| 1778012837 | 13.89° C | 49% | 0 hPa | 0 mm | - | - | - |
| 1778012537 | 14.44° C | 51% | 0 hPa | 0 mm | - | - | - |
| 1778012237 | 14.44° C | 52% | 0 hPa | 0 mm | - | - | - |
| 1778011937 | 14.44° C | 44% | 0 hPa | 0 mm | - | - | - |
| 1778011637 | 15° C | 42% | 0 hPa | 0 mm | - | - | - |
| 1778011337 | 15° C | 42% | 0 hPa | 0 mm | - | - | - |
* Rain latest hour (hover to see other rain measurements)
** Current wind speed in m/s (hover to see current wind gust speed)